| time (UTC) | temp F | wind direction | speed MPH | gust MPH | rain 1hr in | rain 24hr in | rain mn in | humidity % | barometer mb |
| 20260510094943 | 65 | 332 | 1.0 | 4.0 | 0.00 | 0.00 | 0.00 | 72 | 1014.7 |
| 20260510094439 | 65 | 331 | 2.0 | 4.0 | 0.00 | 0.00 | 0.00 | 72 | 1014.8 |
| 20260510094015 | 65 | 333 | 2.0 | 4.0 | 0.00 | 0.00 | 0.00 | 72 | 1014.8 |
| 20260510093444 | 65 | 5 | 1.0 | 4.0 | 0.00 | 0.00 | 0.00 | 73 | 1014.8 |
| 20260510092940 | 65 | 12 | 2.0 | 4.0 | 0.00 | 0.00 | 0.00 | 73 | 1014.8 |
| 20260510092459 | 65 | 15 | 1.0 | 5.0 | 0.00 | 0.00 | 0.00 | 74 | 1014.7 |
| 20260510091943 | 65 | 355 | 1.0 | 5.0 | 0.00 | 0.00 | 0.00 | 74 | 1014.8 |
| 20260510091452 | 65 | 9 | 1.0 | 4.0 | 0.00 | 0.00 | 0.00 | 75 | 1014.8 |
| 20260510091005 | 65 | 28 | 2.0 | 4.0 | 0.00 | 0.00 | 0.00 | 75 | 1014.8 |
| 20260510090440 | 65 | 26 | 1.0 | 3.0 | 0.00 | 0.00 | 0.00 | 76 | 1014.9 |
| 20260510085953 | 65 | 47 | 0.0 | 2.0 | 0.00 | 0.00 | 0.00 | 77 | 1014.9 |
| 20260510085442 | 65 | 47 | 0.0 | 2.0 | 0.00 | 0.00 | 0.00 | 78 | 1014.9 |
| 20260510084941 | 65 | 47 | 0.0 | 2.0 | 0.00 | 0.00 | 0.00 | 78 | 1015.0 |
| 20260510084450 | 65 | 47 | 0.0 | 2.0 | 0.00 | 0.00 | 0.00 | 77 | 1015.0 |
| 20260510084007 | 65 | 47 | 0.0 | 2.0 | 0.00 | 0.00 | 0.00 | 77 | 1015.1 |
| 20260510083442 | 65 | 47 | 0.0 | 3.0 | 0.00 | 0.00 | 0.00 | 77 | 1015.1 |
| 20260510082958 | 65 | 47 | 0.0 | 4.0 | 0.00 | 0.00 | 0.00 | 76 | 1015.0 |
| 20260510082446 | 65 | 40 | 1.0 | 4.0 | 0.00 | 0.00 | 0.00 | 76 | 1014.8 |
| 20260510082004 | 65 | 69 | 1.0 | 5.0 | 0.00 | 0.00 | 0.00 | 76 | 1014.8 |
| 20260510081453 | 64 | 62 | 1.0 | 5.0 | 0.00 | 0.00 | 0.00 | 76 | 1014.8 |
| 20260510080947 | 64 | 61 | 3.0 | 5.0 | 0.00 | 0.00 | 0.00 | 76 | 1014.7 |
| 20260510080457 | 64 | 12 | 2.0 | 6.0 | 0.00 | 0.00 | 0.00 | 76 | 1014.7 |
| 20260510075956 | 64 | 40 | 2.0 | 6.0 | 0.00 | 0.00 | 0.00 | 76 | 1014.7 |
| 20260510075447 | 64 | 53 | 2.0 | 6.0 | 0.00 | 0.00 | 0.00 | 77 | 1014.7 |
| 20260510074943 | 64 | 49 | 1.0 | 8.0 | 0.00 | 0.00 | 0.00 | 77 | 1014.6 |
| 20260510074457 | 64 | 63 | 3.0 | 8.0 | 0.00 | 0.00 | 0.00 | 77 | 1014.6 |
| 20260510073952 | 64 | 29 | 2.0 | 6.0 | 0.00 | 0.00 | 0.00 | 78 | 1014.6 |
| 20260510073509 | 64 | 35 | 4.0 | 6.0 | 0.00 | 0.00 | 0.00 | 77 | 1014.7 |
| 20260510073018 | 64 | 42 | 3.0 | 6.0 | 0.00 | 0.00 | 0.00 | 78 | 1014.6 |
| 20260510072446 | 63 | 31 | 2.0 | 6.0 | 0.00 | 0.00 | 0.00 | 78 | 1014.7 |
| 20260510072005 | 63 | 35 | 1.0 | 4.0 | 0.00 | 0.00 | 0.00 | 79 | 1014.7 |
| 20260510071502 | 63 | 39 | 2.0 | 4.0 | 0.00 | 0.00 | 0.00 | 79 | 1014.8 |
| 20260510070951 | 63 | 72 | 1.0 | 3.0 | 0.00 | 0.00 | 0.00 | 80 | 1014.8 |
| 20260510070507 | 63 | 38 | 2.0 | 5.0 | 0.00 | 0.00 | 0.00 | 80 | 1014.8 |
| 20260510070003 | 63 | 69 | 2.0 | 5.0 | 0.00 | 0.00 | 0.00 | 80 | 1014.8 |
| 20260510065451 | 62 | 46 | 0.0 | 3.0 | 0.00 | 0.00 | 0.00 | 81 | 1014.9 |
| 20260510064950 | 62 | 90 | 1.0 | 4.0 | 0.00 | 0.00 | 0.00 | 81 | 1014.9 |
| 20260510064439 | 62 | 66 | 1.0 | 4.0 | 0.00 | 0.00 | 0.00 | 81 | 1014.9 |
| 20260510064016 | 62 | 52 | 2.0 | 4.0 | 0.00 | 0.00 | 0.00 | 80 | 1014.9 |
| 20260510063451 | 62 | 101 | 1.0 | 4.0 | 0.00 | 0.00 | 0.00 | 81 | 1014.9 |
| 20260510062940 | 62 | 69 | 0.0 | 3.0 | 0.00 | 0.00 | 0.00 | 82 | 1014.8 |
| 20260510062516 | 61 | 104 | 0.0 | 3.0 | 0.00 | 0.00 | 0.00 | 82 | 1014.9 |
| 20260510061949 | 61 | 99 | 0.0 | 3.0 | 0.00 | 0.00 | 0.00 | 82 | 1014.9 |
| 20260510061440 | 61 | 96 | 1.0 | 3.0 | 0.00 | 0.00 | 0.00 | 82 | 1014.9 |
| 20260510060956 | 61 | 96 | 1.0 | 3.0 | 0.00 | 0.00 | 0.00 | 82 | 1014.9 |
| 20260510060445 | 61 | 93 | 1.0 | 4.0 | 0.00 | 0.00 | 0.00 | 82 | 1014.9 |
| 20260510055942 | 61 | 64 | 2.0 | 5.0 | 0.00 | 0.00 | 0.00 | 82 | 1014.8 |
| 20260510055459 | 61 | 61 | 2.0 | 5.0 | 0.00 | 0.00 | 0.00 | 82 | 1014.8 |
| 20260510054947 | 60 | 39 | 1.0 | 3.0 | 0.00 | 0.00 | 0.00 | 83 | 1014.8 |
| 20260510054445 | 60 | 38 | 0.0 | 3.0 | 0.00 | 0.00 | 0.00 | 83 | 1014.8 |
| 20260510054001 | 60 | 48 | 1.0 | 4.0 | 0.00 | 0.00 | 0.00 | 83 | 1014.8 |
| 20260510053450 | 60 | 44 | 2.0 | 4.0 | 0.00 | 0.00 | 0.00 | 83 | 1014.7 |
| 20260510052941 | 59 | 55 | 1.0 | 4.0 | 0.00 | 0.00 | 0.00 | 84 | 1014.7 |
| 20260510052517 | 59 | 56 | 1.0 | 4.0 | 0.00 | 0.00 | 0.00 | 84 | 1014.7 |
| 20260510052012 | 59 | 62 | 1.0 | 4.0 | 0.00 | 0.00 | 0.00 | 84 | 1014.7 |
| 20260510051445 | 58 | 53 | 0.0 | 4.0 | 0.00 | 0.00 | 0.00 | 85 | 1014.8 |
| 20260510050954 | 58 | 55 | 1.0 | 3.0 | 0.00 | 0.00 | 0.00 | 85 | 1014.8 |
| 20260510050451 | 58 | 55 | 1.0 | 4.0 | 0.00 | 0.00 | 0.00 | 85 | 1014.7 |
| 20260510045940 | 58 | 57 | 2.0 | 4.0 | 0.00 | 0.00 | 0.00 | 85 | 1014.7 |
| 20260510045438 | 58 | 57 | 1.0 | 5.0 | 0.00 | 0.00 | 0.00 | 86 | 1014.8 |
| 20260510044956 | 58 | 33 | 1.0 | 5.0 | 0.00 | 0.00 | 0.00 | 86 | 1014.7 |
| 20260510044445 | 58 | 28 | 1.0 | 3.0 | 0.00 | 0.00 | 0.00 | 86 | 1014.7 |
| 20260510043945 | 57 | 14 | 0.0 | 0.0 | 0.00 | 0.00 | 0.00 | 86 | 1014.9 |
| 20260510043459 | 57 | 14 | 0.0 | 0.0 | 0.00 | 0.00 | 0.00 | 86 | 1014.9 |
| 20260510043008 | 57 | 14 | 0.0 | 0.0 | 0.00 | 0.00 | 0.00 | 86 | 1014.8 |
| 20260510042503 | 57 | 14 | 0.0 | 0.0 | 0.00 | 0.00 | 0.00 | 86 | 1014.8 |
| 20260510041938 | 57 | 14 | 0.0 | 0.0 | 0.00 | 0.00 | 0.00 | 85 | 1014.8 |
| 20260510041453 | 57 | 14 | 0.0 | 0.0 | 0.00 | 0.00 | 0.00 | 86 | 1014.8 |
| 20260510040942 | 57 | 14 | 0.0 | 0.0 | 0.00 | 0.00 | 0.00 | 86 | 1014.8 |
| 20260510040438 | 57 | 14 | 0.0 | 0.0 | 0.00 | 0.00 | 0.00 | 85 | 1014.9 |
| 20260510035952 | 57 | 14 | 0.0 | 0.0 | 0.00 | 0.00 | 0.00 | 85 | 1014.9 |
| 20260510035440 | 57 | 14 | 0.0 | 0.0 | 0.00 | 0.00 | 0.00 | 85 | 1014.9 |
| 20260510034958 | 57 | 14 | 0.0 | 0.0 | 0.00 | 0.00 | 0.00 | 85 | 1014.9 |
| 20260510034449 | 57 | 14 | 0.0 | 0.0 | 0.00 | 0.00 | 0.00 | 85 | 1014.9 |
| 20260510033947 | 57 | 14 | 0.0 | 0.0 | 0.00 | 0.00 | 0.00 | 85 | 1015.0 |
| 20260510033456 | 57 | 14 | 0.0 | 0.0 | 0.00 | 0.00 | 0.00 | 84 | 1015.1 |
| 20260510033013 | 58 | 14 | 0.0 | 0.0 | 0.00 | 0.00 | 0.00 | 84 | 1015.1 |
| 20260510032448 | 58 | 14 | 0.0 | 0.0 | 0.00 | 0.00 | 0.00 | 84 | 1015.1 |
| 20260510031957 | 58 | 14 | 0.0 | 1.0 | 0.00 | 0.00 | 0.00 | 85 | 1015.1 |
| 20260510031455 | 58 | 14 | 0.0 | 3.0 | 0.00 | 0.00 | 0.00 | 84 | 1015.0 |
| 20260510030945 | 58 | 14 | 1.0 | 3.0 | 0.00 | 0.00 | 0.00 | 84 | 1015.0 |
| 20260510030443 | 58 | 14 | 0.0 | 1.0 | 0.00 | 0.00 | 0.00 | 84 | 1015.1 |
| 20260510025959 | 58 | 14 | 0.0 | 1.0 | 0.00 | 0.00 | 0.00 | 84 | 1015.2 |
| 20260510025448 | 58 | 14 | 0.0 | 0.0 | 0.00 | 0.00 | 0.00 | 84 | 1015.2 |
| 20260510024943 | 58 | 13 | 0.0 | 0.0 | 0.00 | 0.00 | 0.00 | 84 | 1015.3 |
| 20260510024458 | 58 | 13 | 0.0 | 2.0 | 0.00 | 0.00 | 0.00 | 84 | 1015.3 |
| 20260510024007 | 58 | 13 | 0.0 | 2.0 | 0.00 | 0.00 | 0.00 | 84 | 1015.4 |
| 20260510023503 | 58 | 14 | 0.0 | 0.0 | 0.00 | 0.00 | 0.00 | 83 | 1015.4 |
| 20260510022938 | 59 | 14 | 0.0 | 0.0 | 0.00 | 0.00 | 0.00 | 83 | 1015.5 |
| 20260510022447 | 59 | 14 | 0.0 | 0.0 | 0.00 | 0.00 | 0.00 | 83 | 1015.6 |
| 20260510021937 | 59 | 14 | 0.0 | 0.0 | 0.00 | 0.00 | 0.00 | 83 | 1015.6 |
| 20260510021453 | 59 | 14 | 0.0 | 0.0 | 0.00 | 0.00 | 0.00 | 82 | 1015.6 |
| 20260510020942 | 59 | 14 | 0.0 | 0.0 | 0.00 | 0.00 | 0.00 | 82 | 1015.6 |
| 20260510020440 | 59 | 14 | 0.0 | 0.0 | 0.00 | 0.00 | 0.00 | 82 | 1015.6 |
| 20260510015948 | 59 | 14 | 0.0 | 0.0 | 0.00 | 0.00 | 0.00 | 82 | 1015.6 |
| 20260510015447 | 59 | 14 | 0.0 | 0.0 | 0.00 | 0.00 | 0.00 | 82 | 1015.6 |
| 20260510014937 | 59 | 14 | 0.0 | 1.0 | 0.00 | 0.00 | 0.00 | 81 | 1015.6 |
| 20260510014510 | 59 | 14 | 0.0 | 2.0 | 0.00 | 0.00 | 0.00 | 81 | 1015.7 |
| 20260510013945 | 60 | 14 | 0.0 | 3.0 | 0.00 | 0.00 | 0.00 | 81 | 1015.7 |
| 20260510013443 | 60 | 14 | 1.0 | 3.0 | 0.00 | 0.00 | 0.00 | 80 | 1015.8 |
| 20260510013019 | 60 | 17 | 1.0 | 3.0 | 0.00 | 0.00 | 0.00 | 80 | 1015.8 |
| 20260510012446 | 60 | 26 | 0.0 | 1.0 | 0.00 | 0.00 | 0.00 | 79 | 1015.9 |
| 20260510011943 | 60 | 26 | 0.0 | 0.0 | 0.00 | 0.00 | 0.00 | 79 | 1015.9 |
| 20260510011454 | 60 | 26 | 0.0 | 1.0 | 0.00 | 0.00 | 0.00 | 79 | 1015.8 |
| 20260510010949 | 60 | 26 | 0.0 | 2.0 | 0.00 | 0.00 | 0.00 | 79 | 1015.8 |
| 20260510010440 | 60 | 26 | 0.0 | 2.0 | 0.00 | 0.00 | 0.00 | 79 | 1015.8 |
| 20260510005938 | 60 | 26 | 0.0 | 2.0 | 0.00 | 0.00 | 0.00 | 79 | 1015.8 |
| 20260510005453 | 60 | 27 | 0.0 | 2.0 | 0.00 | 0.00 | 0.00 | 79 | 1015.9 |
| 20260510004942 | 60 | 27 | 0.0 | 2.0 | 0.00 | 0.00 | 0.00 | 79 | 1015.8 |
| 20260510004459 | 60 | 28 | 1.0 | 2.0 | 0.00 | 0.00 | 0.00 | 79 | 1015.9 |
| 20260510003956 | 60 | 28 | 0.0 | 2.0 | 0.00 | 0.00 | 0.00 | 79 | 1016.1 |
| 20260510003445 | 61 | 28 | 1.0 | 3.0 | 0.00 | 0.00 | 0.00 | 79 | 1016.1 |
| 20260510002941 | 61 | 30 | 0.0 | 2.0 | 0.00 | 0.00 | 0.00 | 79 | 1016.1 |
| 20260510002454 | 61 | 30 | 0.0 | 1.0 | 0.00 | 0.00 | 0.00 | 79 | 1016.1 |
| 20260510001942 | 61 | 30 | 0.0 | 0.0 | 0.00 | 0.00 | 0.00 | 79 | 1016.1 |
| 20260510001459 | 61 | 30 | 0.0 | 1.0 | 0.00 | 0.00 | 0.00 | 79 | 1016.0 |
| 20260510000949 | 61 | 30 | 0.0 | 3.0 | 0.00 | 0.00 | 0.00 | 79 | 1016.0 |
| 20260510000448 | 61 | 30 | 0.0 | 3.0 | 0.00 | 0.00 | 0.00 | 79 | 1016.0 |
| 20260510000002 | 61 | 31 | 1.0 | 2.0 | 0.00 | 0.00 | 0.00 | 78 | 1016.1 |
| 20260509235451 | 61 | 33 | 0.0 | 2.0 | 0.00 | 0.00 | 0.00 | 78 | 1016.2 |
| 20260509234941 | 61 | 33 | 1.0 | 2.0 | 0.00 | 0.00 | 0.00 | 77 | 1016.2 |
| 20260509234502 | 61 | 34 | 0.0 | 2.0 | 0.00 | 0.00 | 0.00 | 77 | 1016.2 |
| 20260509233950 | 62 | 34 | 1.0 | 2.0 | 0.00 | 0.00 | 0.00 | 76 | 1016.2 |
| 20260509233445 | 62 | 38 | 0.0 | 2.0 | 0.00 | 0.00 | 0.00 | 76 | 1016.3 |
| 20260509233001 | 62 | 38 | 1.0 | 2.0 | 0.00 | 0.00 | 0.00 | 76 | 1016.4 |
| 20260509232448 | 62 | 38 | 0.0 | 1.0 | 0.00 | 0.00 | 0.00 | 75 | 1016.4 |
| 20260509231945 | 62 | 38 | 0.0 | 0.0 | 0.00 | 0.00 | 0.00 | 75 | 1016.3 |
| 20260509231502 | 62 | 38 | 0.0 | 0.0 | 0.00 | 0.00 | 0.00 | 75 | 1016.3 |
| 20260509230951 | 63 | 38 | 0.0 | 0.0 | 0.00 | 0.00 | 0.00 | 74 | 1016.3 |
| 20260509230441 | 63 | 38 | 0.0 | 0.0 | 0.00 | 0.00 | 0.00 | 74 | 1016.3 |
| 20260509225937 | 63 | 38 | 0.0 | 0.0 | 0.00 | 0.00 | 0.00 | 74 | 1016.3 |
| 20260509225453 | 63 | 38 | 0.0 | 0.0 | 0.00 | 0.00 | 0.00 | 73 | 1016.3 |
| 20260509225009 | 63 | 38 | 0.0 | 0.0 | 0.00 | 0.00 | 0.00 | 73 | 1016.2 |
| 20260509224454 | 63 | 38 | 0.0 | 0.0 | 0.00 | 0.00 | 0.00 | 73 | 1016.3 |
| 20260509223951 | 63 | 38 | 0.0 | 0.0 | 0.00 | 0.00 | 0.00 | 72 | 1016.3 |
| 20260509223507 | 63 | 38 | 0.0 | 2.0 | 0.00 | 0.00 | 0.00 | 72 | 1016.4 |
| 20260509223022 | 64 | 38 | 1.0 | 2.0 | 0.00 | 0.00 | 0.00 | 72 | 1016.4 |
| 20260509222451 | 64 | 38 | 0.0 | 2.0 | 0.00 | 0.00 | 0.00 | 71 | 1016.4 |
| 20260509221947 | 64 | 38 | 0.0 | 3.0 | 0.00 | 0.00 | 0.00 | 71 | 1016.3 |
| 20260509221455 | 64 | 38 | 1.0 | 3.0 | 0.00 | 0.00 | 0.00 | 70 | 1016.4 |
| 20260509221010 | 64 | 37 | 1.0 | 2.0 | 0.00 | 0.00 | 0.00 | 69 | 1016.2 |
| 20260509220446 | 65 | 37 | 0.0 | 3.0 | 0.00 | 0.00 | 0.00 | 69 | 1016.3 |
| 20260509220021 | 65 | 37 | 1.0 | 4.0 | 0.00 | 0.00 | 0.00 | 68 | 1016.3 |
| 20260509215448 | 65 | 70 | 0.0 | 2.0 | 0.00 | 0.00 | 0.00 | 67 | 1016.3 |
| 20260509214944 | 65 | 69 | 0.0 | 3.0 | 0.00 | 0.00 | 0.00 | 67 | 1016.2 |
| 20260509214453 | 65 | 69 | 0.0 | 3.0 | 0.00 | 0.00 | 0.00 | 66 | 1016.2 |
| 20260509213949 | 65 | 63 | 1.0 | 2.0 | 0.00 | 0.00 | 0.00 | 66 | 1016.1 |
| 20260509213446 | 66 | 84 | 1.0 | 2.0 | 0.00 | 0.00 | 0.00 | 65 | 1016.1 |
| 20260509212937 | 66 | 76 | 0.0 | 2.0 | 0.00 | 0.00 | 0.00 | 65 | 1016.2 |
| 20260509212453 | 66 | 77 | 1.0 | 2.0 | 0.00 | 0.00 | 0.00 | 64 | 1016.2 |
| 20260509212011 | 66 | 79 | 0.0 | 2.0 | 0.00 | 0.00 | 0.00 | 64 | 1016.2 |
| 20260509211439 | 66 | 63 | 0.0 | 4.0 | 0.00 | 0.00 | 0.00 | 64 | 1016.2 |
| 20260509210937 | 66 | 63 | 1.0 | 5.0 | 0.00 | 0.00 | 0.00 | 64 | 1016.2 |
| 20260509210456 | 66 | 66 | 2.0 | 5.0 | 0.00 | 0.00 | 0.00 | 63 | 1016.2 |
| 20260509205944 | 66 | 82 | 0.0 | 3.0 | 0.00 | 0.00 | 0.00 | 63 | 1016.1 |
| 20260509205502 | 66 | 103 | 1.0 | 6.0 | 0.00 | 0.00 | 0.00 | 63 | 1016.1 |
| 20260509204953 | 67 | 62 | 1.0 | 6.0 | 0.00 | 0.00 | 0.00 | 63 | 1016.3 |
| 20260509204451 | 67 | 57 | 3.0 | 6.0 | 0.00 | 0.00 | 0.00 | 64 | 1016.2 |
| 20260509203942 | 67 | 121 | 1.0 | 4.0 | 0.00 | 0.00 | 0.00 | 64 | 1016.0 |
| 20260509203440 | 67 | 108 | 1.0 | 4.0 | 0.00 | 0.00 | 0.00 | 64 | 1016.0 |
| 20260509202951 | 67 | 9 | 0.0 | 5.0 | 0.00 | 0.00 | 0.00 | 65 | 1016.2 |
| 20260509202450 | 68 | 5 | 2.0 | 5.0 | 0.00 | 0.00 | 0.00 | 65 | 1016.1 |
| 20260509201941 | 68 | 144 | 0.0 | 3.0 | 0.00 | 0.00 | 0.00 | 64 | 1015.8 |
| 20260509201438 | 68 | 142 | 1.0 | 5.0 | 0.00 | 0.00 | 0.00 | 64 | 1015.7 |
| 20260509200956 | 69 | 142 | 2.0 | 7.0 | 0.00 | 0.00 | 0.00 | 64 | 1015.6 |
| 20260509200452 | 69 | 121 | 3.0 | 7.0 | 0.00 | 0.00 | 0.00 | 64 | 1015.6 |
| 20260509195940 | 69 | 147 | 2.0 | 8.0 | 0.00 | 0.00 | 0.00 | 63 | 1015.6 |
| 20260509195513 | 69 | 140 | 4.0 | 8.0 | 0.00 | 0.00 | 0.00 | 63 | 1015.5 |
| 20260509194949 | 69 | 146 | 2.0 | 5.0 | 0.00 | 0.00 | 0.00 | 63 | 1015.5 |
| 20260509194506 | 70 | 148 | 2.0 | 5.0 | 0.00 | 0.00 | 0.00 | 63 | 1015.5 |
| 20260509194020 | 70 | 117 | 1.0 | 3.0 | 0.00 | 0.00 | 0.00 | 63 | 1015.4 |
| 20260509193448 | 70 | 116 | 0.0 | 8.0 | 0.00 | 0.00 | 0.00 | 63 | 1015.3 |
| 20260509192945 | 70 | 113 | 2.0 | 8.0 | 0.00 | 0.00 | 0.00 | 62 | 1015.4 |
| 20260509192451 | 70 | 122 | 3.0 | 10.0 | 0.00 | 0.00 | 0.00 | 63 | 1015.3 |
| 20260509191946 | 71 | 119 | 4.0 | 10.0 | 0.00 | 0.00 | 0.00 | 63 | 1015.3 |
| 20260509191503 | 71 | 171 | 3.0 | 7.0 | 0.00 | 0.00 | 0.00 | 63 | 1015.2 |
| 20260509191019 | 71 | 135 | 3.0 | 7.0 | 0.00 | 0.00 | 0.00 | 63 | 1015.1 |
| 20260509190446 | 72 | 182 | 1.0 | 7.0 | 0.00 | 0.00 | 0.00 | 63 | 1015.1 |
| 20260509190004 | 72 | 153 | 3.0 | 7.0 | 0.00 | 0.00 | 0.00 | 62 | 1015.0 |
| 20260509185458 | 72 | 128 | 2.0 | 7.0 | 0.00 | 0.00 | 0.00 | 61 | 1015.0 |
| 20260509184947 | 72 | 140 | 3.0 | 7.0 | 0.00 | 0.00 | 0.00 | 61 | 1014.9 |
| 20260509184445 | 73 | 123 | 2.0 | 6.0 | 0.00 | 0.00 | 0.00 | 61 | 1014.9 |
| 20260509184001 | 73 | 122 | 2.0 | 6.0 | 0.00 | 0.00 | 0.00 | 60 | 1014.8 |
| 20260509183511 | 73 | 109 | 1.0 | 4.0 | 0.00 | 0.00 | 0.00 | 58 | 1014.7 |
| 20260509182947 | 74 | 92 | 1.0 | 6.0 | 0.00 | 0.00 | 0.00 | 57 | 1014.7 |
| 20260509182500 | 74 | 89 | 2.0 | 4.0 | 0.00 | 0.00 | 0.00 | 54 | 1014.6 |
| 20260509181947 | 75 | 179 | 0.0 | 3.0 | 0.00 | 0.00 | 0.00 | 51 | 1014.5 |
| 20260509181444 | 75 | 180 | 1.0 | 3.0 | 0.00 | 0.00 | 0.00 | 51 | 1014.5 |
| 20260509181002 | 75 | 181 | 0.0 | 2.0 | 0.00 | 0.00 | 0.00 | 51 | 1014.4 |
| 20260509180451 | 75 | 181 | 0.0 | 3.0 | 0.00 | 0.00 | 0.00 | 51 | 1014.5 |
| 20260509180009 | 76 | 182 | 1.0 | 4.0 | 0.00 | 0.00 | 0.00 | 50 | 1014.5 |
| 20260509175445 | 76 | 179 | 2.0 | 5.0 | 0.00 | 0.00 | 0.00 | 50 | 1014.5 |
| 20260509174954 | 76 | 185 | 2.0 | 5.0 | 0.00 | 0.00 | 0.00 | 49 | 1014.6 |
| 20260509174451 | 76 | 205 | 2.0 | 5.0 | 0.00 | 0.00 | 0.00 | 49 | 1014.5 |
| 20260509173941 | 77 | 190 | 1.0 | 4.0 | 0.00 | 0.00 | 0.00 | 49 | 1014.6 |
| 20260509173438 | 77 | 190 | 2.0 | 4.0 | 0.00 | 0.00 | 0.00 | 48 | 1014.6 |
| 20260509172953 | 77 | 184 | 1.0 | 4.0 | 0.00 | 0.00 | 0.00 | 48 | 1014.6 |
| 20260509172443 | 77 | 217 | 2.0 | 6.0 | 0.00 | 0.00 | 0.00 | 47 | 1014.6 |
| 20260509171959 | 77 | 241 | 4.0 | 7.0 | 0.00 | 0.00 | 0.00 | 47 | 1014.6 |
| 20260509171454 | 78 | 229 | 4.0 | 7.0 | 0.00 | 0.00 | 0.00 | 47 | 1014.6 |
| 20260509170945 | 78 | 209 | 3.0 | 7.0 | 0.00 | 0.00 | 0.00 | 46 | 1014.5 |
| 20260509170442 | 78 | 242 | 1.0 | 5.0 | 0.00 | 0.00 | 0.00 | 46 | 1014.5 |
| 20260509170021 | 78 | 233 | 3.0 | 8.0 | 0.00 | 0.00 | 0.00 | 45 | 1014.5 |
| 20260509165514 | 79 | 200 | 5.0 | 8.0 | 0.00 | 0.00 | 0.00 | 45 | 1014.4 |
| 20260509164945 | 79 | 215 | 2.0 | 7.0 | 0.00 | 0.00 | 0.00 | 45 | 1014.5 |
| 20260509164501 | 79 | 200 | 4.0 | 7.0 | 0.00 | 0.00 | 0.00 | 45 | 1014.5 |
| 20260509163950 | 79 | 204 | 2.0 | 7.0 | 0.00 | 0.00 | 0.00 | 43 | 1014.6 |
| 20260509163446 | 79 | 238 | 3.0 | 7.0 | 0.00 | 0.00 | 0.00 | 42 | 1014.6 |
| 20260509162938 | 79 | 242 | 3.0 | 4.0 | 0.00 | 0.00 | 0.00 | 43 | 1014.6 |
| 20260509162449 | 79 | 225 | 2.0 | 6.0 | 0.00 | 0.00 | 0.00 | 42 | 1014.6 |
| 20260509161940 | 79 | 249 | 1.0 | 6.0 | 0.00 | 0.00 | 0.00 | 43 | 1014.7 |
| 20260509161439 | 79 | 169 | 2.0 | 7.0 | 0.00 | 0.00 | 0.00 | 44 | 1014.7 |
| 20260509160954 | 79 | 152 | 3.0 | 7.0 | 0.00 | 0.00 | 0.00 | 44 | 1014.7 |
| 20260509160444 | 79 | 181 | 4.0 | 7.0 | 0.00 | 0.00 | 0.00 | 43 | 1014.7 |
| 20260509155942 | 79 | 205 | 2.0 | 9.0 | 0.00 | 0.00 | 0.00 | 43 | 1014.7 |
| 20260509155516 | 79 | 219 | 1.0 | 9.0 | 0.00 | 0.00 | 0.00 | 42 | 1014.7 |
| 20260509154943 | 79 | 242 | 4.0 | 8.0 | 0.00 | 0.00 | 0.00 | 42 | 1014.7 |
| 20260509154459 | 79 | 242 | 4.0 | 8.0 | 0.00 | 0.00 | 0.00 | 42 | 1014.6 |
| 20260509153956 | 80 | 249 | 4.0 | 8.0 | 0.00 | 0.00 | 0.00 | 44 | 1014.7 |
| 20260509153453 | 80 | 220 | 3.0 | 7.0 | 0.00 | 0.00 | 0.00 | 44 | 1014.7 |
| 20260509152944 | 80 | 229 | 4.0 | 8.0 | 0.00 | 0.00 | 0.00 | 43 | 1014.7 |
| 20260509152500 | 80 | 166 | 5.0 | 8.0 | 0.00 | 0.00 | 0.00 | 42 | 1014.7 |
| 20260509151949 | 80 | 226 | 3.0 | 11.0 | 0.00 | 0.00 | 0.00 | 40 | 1014.8 |
| 20260509151446 | 80 | 242 | 7.0 | 11.0 | 0.00 | 0.00 | 0.00 | 40 | 1014.8 |
| 20260509150938 | 80 | 271 | 6.0 | 11.0 | 0.00 | 0.00 | 0.00 | 40 | 1014.9 |
| 20260509150514 | 80 | 245 | 6.0 | 11.0 | 0.00 | 0.00 | 0.00 | 43 | 1014.9 |
| 20260509150010 | 80 | 124 | 0.0 | 8.0 | 0.00 | 0.00 | 0.00 | 44 | 1014.9 |
| 20260509145443 | 80 | 189 | 3.0 | 8.0 | 0.00 | 0.00 | 0.00 | 43 | 1015.0 |
| 20260509144959 | 81 | 129 | 3.0 | 8.0 | 0.00 | 0.00 | 0.00 | 44 | 1015.1 |
| 20260509144450 | 81 | 188 | 4.0 | 8.0 | 0.00 | 0.00 | 0.00 | 42 | 1015.1 |
| 20260509143946 | 81 | 209 | 3.0 | 8.0 | 0.00 | 0.00 | 0.00 | 41 | 1015.0 |
| 20260509143452 | 81 | 246 | 3.0 | 6.0 | 0.00 | 0.00 | 0.00 | 42 | 1015.0 |
| 20260509142949 | 80 | 205 | 1.0 | 7.0 | 0.00 | 0.00 | 0.00 | 42 | 1015.1 |
| 20260509142439 | 80 | 198 | 4.0 | 10.0 | 0.00 | 0.00 | 0.00 | 42 | 1015.2 |
| 20260509141956 | 80 | 195 | 4.0 | 10.0 | 0.00 | 0.00 | 0.00 | 43 | 1015.1 |
| 20260509141455 | 80 | 196 | 4.0 | 7.0 | 0.00 | 0.00 | 0.00 | 43 | 1015.1 |
| 20260509140943 | 80 | 202 | 4.0 | 10.0 | 0.00 | 0.00 | 0.00 | 43 | 1015.2 |
| 20260509140458 | 80 | 211 | 5.0 | 10.0 | 0.00 | 0.00 | 0.00 | 42 | 1015.2 |
| 20260509135950 | 80 | 250 | 1.0 | 11.0 | 0.00 | 0.00 | 0.00 | 42 | 1015.2 |
| 20260509135449 | 80 | 237 | 4.0 | 7.0 | 0.00 | 0.00 | 0.00 | 41 | 1015.3 |
| 20260509134937 | 80 | 230 | 2.0 | 12.0 | 0.00 | 0.00 | 0.00 | 43 | 1015.3 |
| 20260509134454 | 80 | 215 | 2.0 | 11.0 | 0.00 | 0.00 | 0.00 | 44 | 1015.4 |
| 20260509133945 | 80 | 176 | 4.0 | 11.0 | 0.00 | 0.00 | 0.00 | 44 | 1015.4 |
| 20260509133440 | 80 | 130 | 3.0 | 10.0 | 0.00 | 0.00 | 0.00 | 43 | 1015.4 |
| 20260509132937 | 80 | 171 | 4.0 | 10.0 | 0.00 | 0.00 | 0.00 | 42 | 1015.6 |
| 20260509132453 | 80 | 223 | 6.0 | 11.0 | 0.00 | 0.00 | 0.00 | 39 | 1015.6 |
| 20260509131942 | 81 | 235 | 5.0 | 9.0 | 0.00 | 0.00 | 0.00 | 40 | 1015.6 |
| 20260509131438 | 80 | 184 | 3.0 | 8.0 | 0.00 | 0.00 | 0.00 | 42 | 1015.7 |
| 20260509130948 | 80 | 109 | 1.0 | 8.0 | 0.00 | 0.00 | 0.00 | 42 | 1015.6 |
| 20260509130446 | 80 | 214 | 4.0 | 9.0 | 0.00 | 0.00 | 0.00 | 43 | 1015.7 |
| 20260509130003 | 79 | 229 | 5.0 | 9.0 | 0.00 | 0.00 | 0.00 | 43 | 1015.7 |
| 20260509125452 | 79 | 199 | 2.0 | 10.0 | 0.00 | 0.00 | 0.00 | 44 | 1015.7 |
| 20260509124950 | 79 | 240 | 6.0 | 10.0 | 0.00 | 0.00 | 0.00 | 44 | 1015.7 |
| 20260509124440 | 79 | 238 | 2.0 | 5.0 | 0.00 | 0.00 | 0.00 | 45 | 1015.8 |
| 20260509123956 | 79 | 240 | 2.0 | 7.0 | 0.00 | 0.00 | 0.00 | 44 | 1015.8 |
| 20260509123450 | 79 | 258 | 2.0 | 9.0 | 0.00 | 0.00 | 0.00 | 44 | 1015.9 |
| 20260509122941 | 80 | 238 | 6.0 | 9.0 | 0.00 | 0.00 | 0.00 | 44 | 1015.9 |
| 20260509122439 | 80 | 232 | 4.0 | 9.0 | 0.00 | 0.00 | 0.00 | 43 | 1015.8 |
| 20260509121949 | 80 | 217 | 2.0 | 8.0 | 0.00 | 0.00 | 0.00 | 41 | 1015.8 |
| 20260509121447 | 80 | 327 | 2.0 | 9.0 | 0.00 | 0.00 | 0.00 | 40 | 1016.0 |
| 20260509120939 | 80 | 226 | 4.0 | 8.0 | 0.00 | 0.00 | 0.00 | 41 | 1016.0 |
| 20260509120455 | 79 | 216 | 4.0 | 8.0 | 0.00 | 0.00 | 0.00 | 42 | 1016.0 |
| 20260509115954 | 79 | 199 | 3.0 | 7.0 | 0.00 | 0.00 | 0.00 | 42 | 1016.0 |
| 20260509115443 | 79 | 170 | 1.0 | 9.0 | 0.00 | 0.00 | 0.00 | 45 | 1016.1 |
| 20260509114956 | 80 | 240 | 4.0 | 10.0 | 0.00 | 0.00 | 0.00 | 44 | 1016.2 |
| 20260509114446 | 80 | 224 | 4.0 | 10.0 | 0.00 | 0.00 | 0.00 | 45 | 1016.3 |
| 20260509113945 | 80 | 184 | 1.0 | 5.0 | 0.00 | 0.00 | 0.00 | 46 | 1016.3 |
| 20260509113500 | 79 | 192 | 2.0 | 5.0 | 0.00 | 0.00 | 0.00 | 46 | 1016.3 |
| 20260509112947 | 79 | 170 | 1.0 | 7.0 | 0.00 | 0.00 | 0.00 | 46 | 1016.4 |
| 20260509112444 | 78 | 173 | 1.0 | 7.0 | 0.00 | 0.00 | 0.00 | 47 | 1016.5 |
| 20260509112003 | 78 | 188 | 4.0 | 11.0 | 0.00 | 0.00 | 0.00 | 47 | 1016.5 |
| 20260509111519 | 78 | 207 | 5.0 | 11.0 | 0.00 | 0.00 | 0.00 | 47 | 1016.5 |
| 20260509110947 | 78 | 227 | 4.0 | 10.0 | 0.00 | 0.00 | 0.00 | 48 | 1016.5 |
| 20260509110506 | 77 | 190 | 1.0 | 8.0 | 0.00 | 0.00 | 0.00 | 48 | 1016.6 |
| 20260509110001 | 77 | 248 | 1.0 | 9.0 | 0.00 | 0.00 | 0.00 | 48 | 1016.7 |
| 20260509105457 | 78 | 229 | 6.0 | 9.0 | 0.00 | 0.00 | 0.00 | 49 | 1016.8 |
| 20260509104948 | 77 | 315 | 1.0 | 7.0 | 0.00 | 0.00 | 0.00 | 49 | 1016.8 |
| 20260509104438 | 78 | 299 | 2.0 | 7.0 | 0.00 | 0.00 | 0.00 | 50 | 1016.9 |
| 20260509104002 | 77 | 189 | 0.0 | 11.0 | 0.00 | 0.00 | 0.00 | 51 | 1016.9 |
| 20260509103451 | 77 | 221 | 2.0 | 11.0 | 0.00 | 0.00 | 0.00 | 51 | 1017.0 |
| 20260509102948 | 77 | 239 | 3.0 | 10.0 | 0.00 | 0.00 | 0.00 | 52 | 1017.1 |
| 20260509102438 | 76 | 213 | 2.0 | 10.0 | 0.00 | 0.00 | 0.00 | 52 | 1017.2 |
| 20260509101949 | 76 | 228 | 3.0 | 11.0 | 0.00 | 0.00 | 0.00 | 53 | 1017.1 |
| 20260509101446 | 76 | 228 | 6.0 | 11.0 | 0.00 | 0.00 | 0.00 | 52 | 1017.2 |
| 20260509100937 | 76 | 275 | 4.0 | 10.0 | 0.00 | 0.00 | 0.00 | 52 | 1017.2 |
| 20260509100455 | 76 | 185 | 1.0 | 8.0 | 0.00 | 0.00 | 0.00 | 53 | 1017.2 |
| 20260509095949 | 75 | 200 | 2.0 | 8.0 | 0.00 | 0.00 | 0.00 | 52 | 1017.3 |
| 20260509095503 | 75 | 267 | 1.0 | 9.0 | 0.00 | 0.00 | 0.00 | 55 | 1017.3 |